TimeCDT,TemperatureF,Dew PointF,Humidity,Sea Level PressureIn,VisibilityMPH,Wind Direction,Wind SpeedMPH,Gust SpeedMPH,PrecipitationIn,Events,Conditions,WindDirDegrees,DateUTC
12:55 AM,17.8,16.0,93,30.37,10.0,Calm,Calm,-,N/A,,Clear,0,2012-10-29 05:55:00
1:55 AM,18.7,16.9,93,30.37,10.0,Calm,Calm,-,N/A,,Clear,0,2012-10-29 06:55:00
2:55 AM,16.3,14.4,92,30.38,10.0,Calm,Calm,-,N/A,,Clear,0,2012-10-29 07:55:00
3:55 AM,16.5,14.4,91,30.38,10.0,Calm,Calm,-,N/A,,Clear,0,2012-10-29 08:55:00
4:55 AM,17.1,15.1,92,30.38,10.0,Calm,Calm,-,N/A,,Clear,0,2012-10-29 09:55:00
5:28 AM,15.8,14.0,93,30.39,2.5,Calm,Calm,-,N/A,,Clear,0,2012-10-29 10:28:00
5:29 AM,15.8,14.0,93,30.39,2.0,Calm,Calm,-,N/A,,Clear,0,2012-10-29 10:29:00
5:30 AM,15.8,14.0,93,30.39,1.8,Calm,Calm,-,N/A,,Clear,0,2012-10-29 10:30:00
5:31 AM,15.8,12.2,86,30.39,1.5,Calm,Calm,-,N/A,,Clear,0,2012-10-29 10:31:00
5:33 AM,15.8,12.2,86,30.39,1.2,Calm,Calm,-,N/A,,Clear,0,2012-10-29 10:33:00
5:38 AM,15.8,14.0,93,30.39,1.5,Calm,Calm,-,N/A,,Clear,0,2012-10-29 10:38:00
5:39 AM,15.8,14.0,93,30.39,1.8,Calm,Calm,-,N/A,,Clear,0,2012-10-29 10:39:00
5:40 AM,15.8,14.0,93,30.39,2.0,Calm,Calm,-,N/A,,Clear,0,2012-10-29 10:40:00
5:41 AM,15.8,14.0,93,30.39,2.5,Calm,Calm,-,N/A,,Clear,0,2012-10-29 10:41:00
5:42 AM,15.8,14.0,93,30.39,3.0,Calm,Calm,-,N/A,,Clear,0,2012-10-29 10:42:00
5:55 AM,15.4,13.3,91,30.39,9.0,Calm,Calm,-,N/A,,Clear,0,2012-10-29 10:55:00
6:02 AM,15.8,14.0,93,30.39,3.0,Calm,Calm,-,N/A,Snow,Light Snow,0,2012-10-29 11:02:00
6:03 AM,15.8,14.0,93,30.39,2.5,Calm,Calm,-,N/A,Snow,Light Snow,0,2012-10-29 11:03:00
6:05 AM,15.8,14.0,93,30.39,2.0,Calm,Calm,-,N/A,Snow,Light Snow,0,2012-10-29 11:05:00
6:09 AM,14.0,12.2,93,30.39,2.5,Calm,Calm,-,N/A,Snow,Light Snow,0,2012-10-29 11:09:00
6:11 AM,14.0,12.2,93,30.39,3.0,Calm,Calm,-,N/A,Snow,Light Snow,0,2012-10-29 11:11:00
6:14 AM,14.0,12.2,93,30.39,9.0,Calm,Calm,-,N/A,,Clear,0,2012-10-29 11:14:00
6:55 AM,15.1,12.6,90,30.40,10.0,Calm,Calm,-,0.00,,Clear,0,2012-10-29 11:55:00
7:55 AM,15.8,14.0,93,30.42,10.0,Calm,Calm,-,N/A,,Partly Cloudy,0,2012-10-29 12:55:00
8:55 AM,23.0,21.2,93,30.42,10.0,Calm,Calm,-,N/A,,Partly Cloudy,0,2012-10-29 13:55:00
9:55 AM,32.0,26.6,80,30.42,10.0,Calm,Calm,-,N/A,,Partly Cloudy,0,2012-10-29 14:55:00
10:55 AM,41.0,24.8,53,30.40,10.0,Calm,Calm,-,N/A,,Partly Cloudy,0,2012-10-29 15:55:00
11:55 AM,44.6,23.0,43,30.38,10.0,Calm,Calm,-,N/A,,Partly Cloudy,0,2012-10-29 16:55:00
12:55 PM,48.2,21.2,34,30.36,10.0,Variable,4.6,-,N/A,,Partly Cloudy,0,2012-10-29 17:55:00
1:55 PM,50.0,19.4,30,30.33,9.0,Calm,Calm,-,N/A,,Partly Cloudy,0,2012-10-29 18:55:00
2:55 PM,50.0,19.4,30,30.32,10.0,Variable,5.8,-,N/A,,Partly Cloudy,0,2012-10-29 19:55:00
3:55 PM,50.0,17.6,28,30.30,10.0,NNW,5.8,-,N/A,,Partly Cloudy,340,2012-10-29 20:55:00
4:55 PM,49.8,17.2,27,30.29,10.0,NNW,3.5,-,N/A,,Clear,340,2012-10-29 21:55:00
5:55 PM,42.8,19.8,40,30.29,10.0,Calm,Calm,-,N/A,,Clear,0,2012-10-29 22:55:00
6:55 PM,30.4,21.2,69,30.29,10.0,Calm,Calm,-,N/A,,Clear,0,2012-10-29 23:55:00
7:55 PM,31.6,19.4,61,30.29,10.0,Calm,Calm,-,N/A,,Clear,0,2012-10-30 00:55:00
8:24 PM,32.0,19.4,60,30.28,10.0,WNW,3.5,-,N/A,,Clear,290,2012-10-30 01:24:00
8:36 PM,30.2,19.4,64,30.28,10.0,West,5.8,-,N/A,,Clear,270,2012-10-30 01:36:00
8:46 PM,28.4,19.4,69,30.28,10.0,West,5.8,-,N/A,,Clear,260,2012-10-30 01:46:00
8:55 PM,29.5,20.1,68,30.27,10.0,West,5.8,-,0.00,,Clear,270,2012-10-30 01:55:00
9:55 PM,26.4,19.8,76,30.26,10.0,West,4.6,-,N/A,,Clear,270,2012-10-30 02:55:00
10:22 PM,28.4,19.4,69,30.25,10.0,West,5.8,-,N/A,,Clear,270,2012-10-30 03:22:00
10:31 PM,30.2,21.2,69,30.24,10.0,West,5.8,-,N/A,,Clear,270,2012-10-30 03:31:00
10:53 PM,28.4,21.2,74,30.23,10.0,WNW,4.6,-,N/A,,Clear,290,2012-10-30 03:53:00
10:55 PM,29.3,20.7,70,30.23,10.0,WNW,4.6,-,0.00,,Clear,290,2012-10-30 03:55:00
11:04 PM,28.4,21.2,74,30.23,10.0,West,4.6,-,N/A,,Clear,280,2012-10-30 04:04:00
11:19 PM,28.4,19.4,69,30.23,10.0,WNW,4.6,-,N/A,,Clear,290,2012-10-30 04:19:00
11:32 PM,28.4,21.2,74,30.22,10.0,WNW,3.5,-,N/A,,Clear,300,2012-10-30 04:32:00
11:55 PM,26.8,20.7,78,30.22,10.0,Calm,Calm,-,0.00,,Clear,0,2012-10-30 04:55:00